Hourly Weather Kitee

Today, 23 October, Friday

Time Temperature Precipitation Wind Pressure Humidity
00:00 +5°C° 1 mm 3 mps 735 mmHg 96%
01:00 +6°C° 1 mm 2 mps 735 mmHg 97%
02:00 +6°C° 0 mm 1 mps 736 mmHg 95%
03:00 +6°C° 0 mm 1 mps 735 mmHg 96%
04:00 +7°C° 0 mm 1 mps 735 mmHg 96%
05:00 +6°C° 0 mm 2 mps 735 mmHg 96%
06:00 +6°C° 0 mm 2 mps 735 mmHg 96%
07:00 +6°C° 0 mm 2 mps 735 mmHg 97%
08:00 +6°C° 0 mm 2 mps 734 mmHg 97%
09:00 +6°C° 0.4 mm 2 mps 734 mmHg 97%
10:00 +8°C° 0.4 mm 1 mps 734 mmHg 97%
11:00 +8°C° 0.4 mm 1 mps 734 mmHg 98%
12:00 +8°C° 1.1 mm 1 mps 734 mmHg 98%
13:00 +8°C° 1.1 mm 1 mps 734 mmHg 98%
14:00 +7°C° 1.1 mm 0 mps 734 mmHg 98%
15:00 0°C° 0.8 mm 4 mps 739 mmHg 89%
16:00 +3°C° 0.8 mm 4 mps 737 mmHg 91%
17:00 +5°C° 0.8 mm 4 mps 735 mmHg 93%
18:00 +4°C° 0.2 mm 4 mps 736 mmHg 91%
19:00 +2°C° 0.2 mm 5 mps 737 mmHg 90%
20:00 +1°C° 0.2 mm 5 mps 738 mmHg 88%
21:00 +1°C° 0 mm 5 mps 738 mmHg 84%
22:00 0°C° 0 mm 5 mps 739 mmHg 81%
23:00 -1°C° 0 mm 4 mps 740 mmHg 77%

Tomorrow, 24 October, Saturday

Time Temperature Precipitation Wind Pressure Humidity
00:00 -1°C° 0 mm 4 mps 740 mmHg 79%
01:00 -1°C° 0 mm 3 mps 741 mmHg 81%
02:00 -1°C° 0 mm 2 mps 741 mmHg 84%
03:00 -1°C° 0 mm 2 mps 741 mmHg 83%
04:00 -1°C° 0 mm 2 mps 742 mmHg 83%
05:00 -1°C° 0 mm 3 mps 742 mmHg 83%
06:00 -1°C° 0 mm 3 mps 742 mmHg 81%
07:00 -1°C° 0 mm 3 mps 742 mmHg 80%
08:00 0°C° 0 mm 3 mps 742 mmHg 79%
09:00 0°C° 0 mm 3 mps 742 mmHg 76%
10:00 0°C° 0 mm 4 mps 742 mmHg 73%
11:00 +1°C° 0 mm 4 mps 742 mmHg 70%
12:00 +3°C° 0 mm 4 mps 742 mmHg 71%
13:00 +3°C° 0 mm 4 mps 742 mmHg 72%
14:00 +3°C° 0 mm 4 mps 743 mmHg 73%
15:00 +2°C° 0 mm 3 mps 743 mmHg 76%
16:00 +2°C° 0 mm 3 mps 743 mmHg 80%
17:00 +1°C° 0 mm 3 mps 743 mmHg 84%
18:00 +1°C° 0 mm 3 mps 743 mmHg 85%
19:00 +1°C° 0 mm 2 mps 743 mmHg 86%
20:00 +1°C° 0 mm 2 mps 743 mmHg 87%
21:00 +1°C° 0 mm 2 mps 743 mmHg 87%
22:00 +1°C° 0 mm 2 mps 744 mmHg 88%
23:00 +1°C° 0 mm 2 mps 744 mmHg 88%

Day after tomorrow, 25 October, Sunday

Time Temperature Precipitation Wind Pressure Humidity
00:00 +1°C° 0 mm 2 mps 744 mmHg 89%
01:00 +1°C° 0 mm 2 mps 744 mmHg 90%
02:00 +1°C° 0 mm 2 mps 745 mmHg 91%
03:00 +1°C° 0 mm 2 mps 745 mmHg 91%
04:00 +1°C° 0 mm 2 mps 746 mmHg 90%
05:00 +1°C° 0 mm 2 mps 746 mmHg 90%
06:00 +1°C° 0 mm 2 mps 747 mmHg 91%
07:00 -1°C° 0 mm 2 mps 747 mmHg 91%
08:00 -1°C° 0 mm 2 mps 747 mmHg 92%
09:00 +1°C° 0 mm 2 mps 748 mmHg 87%
10:00 +2°C° 0 mm 2 mps 749 mmHg 83%
11:00 +3°C° 0 mm 2 mps 749 mmHg 78%
12:00 +3°C° 0 mm 2 mps 749 mmHg 79%
13:00 +4°C° 0 mm 1 mps 750 mmHg 79%
14:00 +4°C° 0 mm 1 mps 750 mmHg 79%
15:00 +4°C° 0 mm 1 mps 750 mmHg 83%
16:00 +3°C° 0 mm 1 mps 750 mmHg 86%
17:00 +2°C° 0 mm 1 mps 750 mmHg 89%
18:00 +1°C° 0 mm 2 mps 751 mmHg 91%
19:00 +1°C° 0 mm 2 mps 751 mmHg 92%
20:00 +1°C° 0 mm 2 mps 751 mmHg 93%
21:00 +1°C° 0 mm 3 mps 751 mmHg 93%
22:00 +1°C° 0 mm 3 mps 751 mmHg 94%
23:00 +1°C° 0 mm 3 mps 751 mmHg 95%

, 26 October, Monday

Time Temperature Precipitation Wind Pressure Humidity
00:00 +2°C° 0 mm 3 mps 751 mmHg 95%
01:00 +3°C° 0 mm 4 mps 751 mmHg 96%
02:00 +4°C° 0 mm 4 mps 750 mmHg 96%
03:00 +5°C° 0 mm 4 mps 750 mmHg 96%
04:00 +5°C° 0 mm 4 mps 750 mmHg 96%
05:00 +5°C° 0 mm 4 mps 750 mmHg 96%
06:00 +6°C° 0 mm 4 mps 750 mmHg 95%
07:00 +6°C° 0 mm 4 mps 750 mmHg 95%
08:00 +7°C° 0 mm 4 mps 750 mmHg 95%
09:00 +7°C° 0 mm 4 mps 750 mmHg 94%
10:00 +7°C° 0 mm 4 mps 751 mmHg 93%
11:00 +8°C° 0 mm 4 mps 751 mmHg 93%
12:00 +8°C° 0 mm 4 mps 751 mmHg 92%
13:00 +8°C° 0 mm 4 mps 751 mmHg 91%
14:00 +8°C° 0 mm 4 mps 751 mmHg 90%
15:00 +8°C° 0 mm 4 mps 752 mmHg 91%
16:00 +8°C° 0 mm 4 mps 752 mmHg 92%
17:00 +8°C° 0 mm 4 mps 752 mmHg 92%
18:00 +8°C° 0 mm 4 mps 752 mmHg 92%
19:00 +9°C° 0 mm 3 mps 752 mmHg 92%
20:00 +9°C° 0 mm 3 mps 752 mmHg 92%
21:00 +9°C° 0 mm 3 mps 752 mmHg 92%
22:00 +9°C° 0 mm 3 mps 752 mmHg 93%
23:00 +9°C° 0 mm 3 mps 752 mmHg 93%

26 October, Monday

Time Temperature Precipitation Wind Pressure Humidity
00:00 +2°C° 0 mm 3 mps 751 mmHg 95%
01:00 +3°C° 0 mm 4 mps 751 mmHg 96%
02:00 +4°C° 0 mm 4 mps 750 mmHg 96%
03:00 +5°C° 0 mm 4 mps 750 mmHg 96%
04:00 +5°C° 0 mm 4 mps 750 mmHg 96%
05:00 +5°C° 0 mm 4 mps 750 mmHg 96%
06:00 +6°C° 0 mm 4 mps 750 mmHg 95%
07:00 +6°C° 0 mm 4 mps 750 mmHg 95%
08:00 +7°C° 0 mm 4 mps 750 mmHg 95%
09:00 +7°C° 0 mm 4 mps 750 mmHg 94%
10:00 +7°C° 0 mm 4 mps 751 mmHg 93%
11:00 +8°C° 0 mm 4 mps 751 mmHg 93%
12:00 +8°C° 0 mm 4 mps 751 mmHg 92%
13:00 +8°C° 0 mm 4 mps 751 mmHg 91%
14:00 +8°C° 0 mm 4 mps 751 mmHg 90%
15:00 +8°C° 0 mm 4 mps 752 mmHg 91%
16:00 +8°C° 0 mm 4 mps 752 mmHg 92%
17:00 +8°C° 0 mm 4 mps 752 mmHg 92%
18:00 +8°C° 0 mm 4 mps 752 mmHg 92%
19:00 +9°C° 0 mm 3 mps 752 mmHg 92%
20:00 +9°C° 0 mm 3 mps 752 mmHg 92%
21:00 +9°C° 0 mm 3 mps 752 mmHg 92%
22:00 +9°C° 0 mm 3 mps 752 mmHg 93%
23:00 +9°C° 0 mm 3 mps 752 mmHg 93%

27 October, Tuesday

Time Temperature Precipitation Wind Pressure Humidity
00:00 +8°C° 0 mm 3 mps 752 mmHg 93%
01:00 +8°C° 0 mm 3 mps 752 mmHg 93%
02:00 +8°C° 0 mm 3 mps 752 mmHg 93%
03:00 +7°C° 0 mm 4 mps 752 mmHg 93%
04:00 +7°C° 0 mm 4 mps 752 mmHg 93%
05:00 +7°C° 0 mm 4 mps 752 mmHg 93%
06:00 +7°C° 0 mm 4 mps 752 mmHg 93%
07:00 +7°C° 0 mm 4 mps 751 mmHg 92%
08:00 +7°C° 0 mm 4 mps 751 mmHg 91%
09:00 +7°C° 0 mm 4 mps 751 mmHg 90%
10:00 +7°C° 0 mm 4 mps 751 mmHg 89%
11:00 +7°C° 0 mm 4 mps 751 mmHg 88%
12:00 +7°C° 0.1 mm 4 mps 750 mmHg 89%
13:00 +6°C° 0.1 mm 4 mps 750 mmHg 90%
14:00 +6°C° 0.1 mm 4 mps 750 mmHg 91%
15:00 +6°C° 0.1 mm 4 mps 749 mmHg 92%
16:00 +7°C° 0.1 mm 4 mps 749 mmHg 93%
17:00 +7°C° 0.1 mm 4 mps 749 mmHg 93%
18:00 +7°C° 0.2 mm 4 mps 749 mmHg 93%
19:00 +7°C° 0.2 mm 5 mps 748 mmHg 93%
20:00 +8°C° 0.2 mm 5 mps 748 mmHg 93%
21:00 +8°C° 0 mm 4 mps 748 mmHg 93%
22:00 +8°C° 0 mm 4 mps 747 mmHg 94%
23:00 +8°C° 0 mm 4 mps 747 mmHg 94%

28 October, Wednesday

Time Temperature Precipitation Wind Pressure Humidity
00:00 +8°C° 0 mm 4 mps 747 mmHg 93%
01:00 +10°C° 0 mm 4 mps 746 mmHg 93%
02:00 +10°C° 0 mm 4 mps 746 mmHg 92%
03:00 +9°C° 0.5 mm 5 mps 745 mmHg 92%
04:00 +9°C° 0.5 mm 5 mps 745 mmHg 93%
05:00 +9°C° 0.5 mm 5 mps 744 mmHg 93%
06:00 +9°C° 1.5 mm 5 mps 744 mmHg 92%
07:00 +10°C° 1.5 mm 4 mps 744 mmHg 92%
08:00 +10°C° 1.5 mm 4 mps 744 mmHg 91%
09:00 +10°C° 0.1 mm 4 mps 745 mmHg 89%
10:00 +8°C° 0.1 mm 4 mps 745 mmHg 87%
11:00 +9°C° 0.1 mm 3 mps 746 mmHg 86%
12:00 +8°C° 0 mm 4 mps 746 mmHg 83%
13:00 +8°C° 0 mm 4 mps 747 mmHg 81%
14:00 +8°C° 0 mm 4 mps 747 mmHg 79%
15:00 +7°C° 0 mm 4 mps 748 mmHg 82%
16:00 +7°C° 0 mm 3 mps 748 mmHg 85%
17:00 +5°C° 0 mm 3 mps 748 mmHg 88%
18:00 +5°C° 0 mm 3 mps 749 mmHg 89%
19:00 +5°C° 0 mm 2 mps 749 mmHg 91%
20:00 +5°C° 0 mm 2 mps 749 mmHg 93%
21:00 +5°C° 0 mm 2 mps 750 mmHg 93%
22:00 +4°C° 0 mm 2 mps 750 mmHg 94%
23:00 +4°C° 0 mm 2 mps 750 mmHg 94%
Show more